| time (UTC) | temp F | wind direction | speed knots | gust knots | rain 1hr in | rain 24hr in | rain mn in | humidity % | barometer mb |
| 20260505012014 | 63 | 249 | 5.2 | 10.4 | 0.00 | 0.00 | 0.00 | 66 | 1013.4 |
| 20260505010531 | 64 | 273 | 5.2 | 11.3 | 0.00 | 0.00 | 0.00 | 62 | 1013.2 |
| 20260505005053 | 65 | 256 | 1.7 | 10.4 | 0.00 | 0.00 | 0.00 | 62 | 1013.4 |
| 20260505003519 | 65 | 288 | 5.2 | 10.4 | 0.00 | 0.00 | 0.00 | 60 | 1013.3 |
| 20260505002029 | 65 | 263 | 2.6 | 10.4 | 0.00 | 0.00 | 0.00 | 62 | 1013.3 |
| 20260505000530 | 65 | 271 | 5.2 | 12.2 | 0.00 | 0.00 | 0.00 | 59 | 1013.5 |
| 20260504235052 | 65 | 244 | 2.6 | 13.9 | 0.00 | 0.00 | 0.00 | 60 | 1013.4 |
| 20260504233555 | 65 | 309 | 2.6 | 8.7 | 0.00 | 0.00 | 0.00 | 59 | 1013.5 |
| 20260504232029 | 66 | 249 | 1.7 | 7.0 | 0.00 | 0.00 | 0.00 | 60 | 1013.4 |
| 20260504230529 | 66 | 279 | 0.9 | 13.9 | 0.00 | 0.00 | 0.00 | 61 | 1013.4 |
| 20260504225025 | 66 | 251 | 5.2 | 12.2 | 0.00 | 0.00 | 0.00 | 60 | 1013.3 |
| 20260504223522 | 66 | 245 | 1.7 | 12.2 | 0.00 | 0.00 | 0.00 | 61 | 1013.3 |
| 20260504222023 | 65 | 304 | 3.5 | 11.3 | 0.00 | 0.00 | 0.00 | 63 | 1013.7 |
| 20260504220538 | 66 | 272 | 4.3 | 9.6 | 0.00 | 0.00 | 0.00 | 62 | 1013.8 |
| 20260504215014 | 66 | 275 | 2.6 | 12.2 | 0.00 | 0.00 | 0.00 | 61 | 1013.9 |
| 20260504213529 | 66 | 284 | 6.1 | 16.5 | 0.00 | 0.00 | 0.00 | 60 | 1013.9 |
| 20260504212026 | 66 | 295 | 3.5 | 11.3 | 0.00 | 0.00 | 0.00 | 61 | 1014.1 |
| 20260504210543 | 67 | 268 | 2.6 | 13.9 | 0.00 | 0.00 | 0.00 | 60 | 1014.0 |
| 20260504205020 | 66 | 259 | 2.6 | 10.4 | 0.00 | 0.00 | 0.00 | 59 | 1014.0 |
| 20260504203543 | 66 | 291 | 2.6 | 11.3 | 0.00 | 0.00 | 0.00 | 60 | 1014.1 |
| 20260504202019 | 67 | 265 | 3.5 | 10.4 | 0.00 | 0.00 | 0.00 | 59 | 1014.1 |
| 20260504200520 | 66 | 261 | 3.5 | 12.2 | 0.00 | 0.00 | 0.00 | 59 | 1014.1 |
| 20260504195033 | 66 | 270 | 4.3 | 11.3 | 0.00 | 0.00 | 0.00 | 61 | 1014.4 |
| 20260504193545 | 65 | 291 | 1.7 | 11.3 | 0.00 | 0.00 | 0.00 | 62 | 1014.3 |
| 20260504192018 | 65 | 264 | 0.9 | 10.4 | 0.00 | 0.00 | 0.00 | 60 | 1014.5 |
| 20260504190534 | 65 | 265 | 3.5 | 12.2 | 0.00 | 0.00 | 0.00 | 60 | 1014.3 |
| 20260504185029 | 64 | 225 | 1.7 | 8.7 | 0.00 | 0.00 | 0.00 | 60 | 1014.5 |
| 20260504183534 | 65 | 284 | 1.7 | 11.3 | 0.00 | 0.00 | 0.00 | 59 | 1014.7 |
| 20260504182023 | 65 | 257 | 4.3 | 8.7 | 0.00 | 0.00 | 0.00 | 60 | 1014.7 |
| 20260504180517 | 64 | 264 | 4.3 | 8.7 | 0.00 | 0.00 | 0.00 | 60 | 1014.6 |
| 20260504175050 | 64 | 267 | 1.7 | 10.4 | 0.00 | 0.00 | 0.00 | 62 | 1014.5 |
| 20260504173525 | 64 | 258 | 2.6 | 9.6 | 0.00 | 0.00 | 0.00 | 63 | 1014.5 |
| 20260504172018 | 64 | 300 | 3.5 | 8.7 | 0.00 | 0.00 | 0.00 | 62 | 1014.5 |
| 20260504170526 | 62 | 265 | 2.6 | 10.4 | 0.00 | 0.00 | 0.00 | 68 | 1014.3 |
| 20260504150523 | 59 | 260 | 0.0 | 5.2 | 0.00 | 0.00 | 0.00 | 74 | 1014.0 |
| 20260504140547 | 58 | 263 | 0.0 | 0.0 | 0.00 | 0.00 | 0.00 | 77 | 1013.7 |
| 20260504130530 | 57 | 263 | 0.0 | 0.0 | 0.00 | 0.00 | 0.00 | 77 | 1013.4 |
| 20260504110533 | 58 | 271 | 0.0 | 2.6 | 0.00 | 0.00 | 0.00 | 76 | 1013.3 |
| 20260504100522 | 58 | 299 | 0.9 | 6.1 | 0.00 | 0.00 | 0.00 | 75 | 1013.0 |
| 20260504080520 | 59 | 280 | 1.7 | 8.7 | 0.00 | 0.00 | 0.00 | 77 | 1013.7 |
| 20260504050541 | 60 | 247 | 0.0 | 0.0 | 0.00 | 0.00 | 0.00 | 74 | 1013.5 |
| 20260504045014 | 60 | 246 | 0.0 | 0.0 | 0.00 | 0.00 | 0.00 | 74 | 1013.6 |
| 20260504043518 | 60 | 240 | 0.0 | 0.0 | 0.00 | 0.00 | 0.00 | 74 | 1013.4 |
| 20260504042052 | 60 | 238 | 0.0 | 0.0 | 0.00 | 0.00 | 0.00 | 73 | 1013.1 |
| 20260504040555 | 60 | 238 | 0.0 | 0.0 | 0.00 | 0.00 | 0.00 | 73 | 1012.9 |
| 20260504035050 | 61 | 238 | 0.0 | 4.3 | 0.00 | 0.00 | 0.00 | 72 | 1012.9 |
| 20260504033528 | 61 | 237 | 0.0 | 3.5 | 0.00 | 0.00 | 0.00 | 71 | 1013.0 |
| 20260504032025 | 61 | 237 | 1.7 | 6.1 | 0.00 | 0.00 | 0.00 | 71 | 1012.9 |
| 20260504030521 | 61 | 233 | 0.0 | 1.7 | 0.00 | 0.00 | 0.00 | 70 | 1012.7 |
| 20260504025014 | 61 | 248 | 0.0 | 0.0 | 0.00 | 0.00 | 0.00 | 69 | 1012.6 |
| 20260504023533 | 61 | 260 | 0.0 | 4.3 | 0.00 | 0.00 | 0.00 | 69 | 1012.5 |
| 20260504022030 | 62 | 271 | 1.7 | 8.7 | 0.00 | 0.00 | 0.00 | 70 | 1012.5 |
| 20260504020528 | 62 | 261 | 2.6 | 7.8 | 0.00 | 0.00 | 0.00 | 70 | 1012.6 |
| 20260504015026 | 62 | 264 | 0.9 | 7.0 | 0.00 | 0.00 | 0.00 | 70 | 1012.6 |
| 20260504013555 | 62 | 242 | 3.5 | 9.6 | 0.00 | 0.00 | 0.00 | 68 | 1012.4 |